Regional Weather Roundup
Issued by NWS Mt. Holly, NJ

Home | Current Version | Previous Version | Text Only | Print | Product List | Glossary On
Versions: 1 2 3 4 5 6 7 8 9 10 11 12 13 14 15 16 17 18 19 20 21 22 23 24 25 26 27 28 29 30 31 32 33 34 35 36 37 38 39 40 41 42 43 44 45 46 47 48 49 50
000
ASUS41 KPHI 240010
RWRPHI

REGIONAL WEATHER ROUNDUP
NATIONAL WEATHER SERVICE MOUNT HOLLY NJ
800 PM EDT TUE SEP 23 2014

NOTE:  "FAIR" INDICATES FEW OR NO CLOUDS BELOW 12,000 FEET WITH NO
SIGNIFICANT WEATHER AND/OR OBSTRUCTIONS TO VISIBILITY.

 * = STATION DOES NOT REPORT PRECIPITATION (E.G. RAIN, SNOW, ETC.)
        OR FOG.

NJZ015>026-240100-
SOUTHERN NEW JERSEY

CITY           SKY/WX    TMP DP  RH WIND       PRES   REMARKS
POMONA         MOCLDY    56  51  84 CALM      30.37R
6HR MIN TEMP:  56; 6HR MAX TEMP:  67;

RIO GRANDE*    MOCLDY    57  48  72 CALM      30.37R
MILLVILLE      PTCLDY    54  50  86 CALM      30.36R
WRIGHTSTOWN    CLEAR     57  52  81 VRB5      30.34R
MOUNT HOLLY    CLEAR     59  51  75 SE3       30.35R
TRENTON        CLEAR     64  44  48 SW3       30.34R
6HR MIN TEMP:  63; 6HR MAX TEMP:  72;


$$
NJZ001>014-240100-
NORTHERN NEW JERSEY

CITY           SKY/WX    TMP DP  RH WIND       PRES   REMARKS
SUSSEX         CLEAR     60  51  72 CALM      30.34R
ANDOVER*         N/A     55  50  83 CALM      30.35R
NEWARK         PTCLDY    66  53  63 S6        30.34R
TETERBORO      CLEAR     68  50  52 VRB7      30.33R
CALDWELL       CLEAR     62  48  60 CALM      30.34R
SOMERVILLE     CLEAR     58  49  72 CALM      30.32R
ALLAIRE*       PTCLDY    59  46  63 S6        30.36R
TOMS RIVER*    PTCLDY    54  48  82 CALM      30.37R

$$
PAZ043-044-047-054-055-060>062-066>071-240100-
EASTERN PENNSYLVANIA

CITY           SKY/WX    TMP DP  RH WIND       PRES   REMARKS
PHILADELPHIA   PTCLDY    65  48  54 S6        30.36R
6HR MIN TEMP:  65; 6HR MAX TEMP:  72;

NORTH PHILA    CLEAR     64  44  48 S3        30.37R
BLUE BELL      CLEAR     54  50  87 CALM      30.34R
DOYLESTOWN     CLEAR     57  48  72 CALM      30.34R
QUAKERTOWN*    CLEAR     57  46  67 CALM      30.36R
POTTSTOWN      CLEAR     57  48  72 CALM      30.36R
LANCASTER      PTCLDY    60  46  59 CALM      30.35R
COATESVILLE    CLEAR     57  48  72 CALM      30.36R
READING        CLEAR     62  48  60 CALM      30.34R
6HR MIN TEMP:  62; 6HR MAX TEMP:  72;

ALLENTOWN      CLEAR     62  46  55 CALM      30.34R
6HR MIN TEMP:  61; 6HR MAX TEMP:  73;

MOUNT POCONO   CLEAR     55  46  71 N5        30.37R
6HR MIN TEMP:  55; 6HR MAX TEMP:  69;

HAZLETON       CLEAR     54  46  76 CALM      30.40R
WILKES BARRE   CLEAR     59  49  69 E6        30.36R

$$
DEZALL-MDZ008-012-015-019-020-240100-
DELAWARE AND EASTERN MARYLAND

CITY           SKY/WX    TMP DP  RH WIND       PRES   REMARKS
WILMINGTON     CLEAR     63  50  62 S5        30.36R
6HR MIN TEMP:  62; 6HR MAX TEMP:  70;

DOVER          PTCLDY    57  51  81 SE2       30.33R
GEORGETOWN     MOCLDY    58  49  72 CALM      30.36R
6HR MIN TEMP:  56; 6HR MAX TEMP:  66;

EASTON         PTCLDY    59  48  67 CALM      30.39R
PATUXENT       PTCLDY    53  46  77 CALM      30.33R
OCEAN CITY     CLOUDY    57  50  77 N6        30.34S
WALLOPS ISLAND CLOUDY    60  50  69 N7        30.34R
CAMBRIDGE      PTCLDY    59  46  63 NE6       30.35R
SALISBURY      CLOUDY    59  49  69 NE5       30.34R

$$
PAZ001-021-NYZ056-072-MDZ011-DCZ001-240100-
OTHER NEARBY LOCATIONS

CITY           SKY/WX    TMP DP  RH WIND       PRES   REMARKS
HARRISBURG     MOCLDY    61  55  81 NW3       30.34R
STATE COLLEGE  CLEAR     61  48  63 CALM      30.37
WILLIAMSPORT   CLEAR     59  51  75 SW3       30.34R
BINGHAMTON     CLEAR     61  47  59 N6        30.38R
NEW YORK CITY  CLEAR     65  49  56 VRB5      30.36R
BALTIMORE      PTCLDY    59  48  67 CALM      30.34R
WASHINGTON DC  MOCLDY    66  44  45 SE5       30.35R

$$


USA.gov is the U.S. government's official web portal to all federal, state and local government web resources and services.